Location: Ferintosh
(52.7647°N, 112.9692°W)
Time: 21:10:12
(UTC+00:00)

A-11 Canister half - Pass Details

Date: 24 May 2024
Orbit: 1524 x 1683 km, 47.3° (Epoch: 19 June)

Event Time Altitude Azimuth Distance (km) Brightness Sun altitude
Rises 06:18:30 0° 252° (WSW) 4,700 11.5 -14.8°
Reaches altitude 10° 06:21:32 10° 249° (WSW) 3,733 11.0 -14.9°
Maximum altitude 06:30:48 63° 171° (S) 1,746 9.0 -15.3°
Drops below altitude 10° 06:40:24 10° 94° (E) 3,857 10.9 -15.6°
Sets 06:43:36 0° 92° (E) 4,864 11.5 -15.7°
